EN

Hourly Weather Lacha

Today, 23 July, Friday

Time Temperature Precipitation Wind Pressure Humidity
00:00 +19°C° 0 mm 2 mps 756 mmHg 75%
01:00 +19°C° 0 mm 1 mps 756 mmHg 76%
02:00 +19°C° 0 mm 1 mps 756 mmHg 76%
03:00 +19°C° 0 mm 1 mps 755 mmHg 77%
04:00 +19°C° 0 mm 1 mps 755 mmHg 77%
05:00 +20°C° 0 mm 1 mps 755 mmHg 77%
06:00 +19°C° 0 mm 2 mps 755 mmHg 76%
07:00 +19°C° 0 mm 2 mps 755 mmHg 76%
08:00 +20°C° 0.1 mm 2 mps 755 mmHg 72%
09:00 +21°C° 0.1 mm 2 mps 755 mmHg 69%
10:00 +23°C° 0.1 mm 2 mps 755 mmHg 65%
11:00 +24°C° 0.1 mm 3 mps 755 mmHg 61%
12:00 +25°C° 0.1 mm 3 mps 755 mmHg 57%
13:00 +25°C° 0.1 mm 3 mps 754 mmHg 54%
14:00 +25°C° 0 mm 3 mps 754 mmHg 54%
15:00 +25°C° 0 mm 3 mps 754 mmHg 55%
16:00 +25°C° 0 mm 3 mps 754 mmHg 55%
17:00 +24°C° 0 mm 3 mps 754 mmHg 59%
18:00 +23°C° 0 mm 2 mps 754 mmHg 62%
19:00 +21°C° 0 mm 2 mps 754 mmHg 66%
20:00 +21°C° 0 mm 2 mps 754 mmHg 67%
21:00 +20°C° 0 mm 2 mps 754 mmHg 69%
22:00 +19°C° 0 mm 2 mps 754 mmHg 71%
23:00 +19°C° 0 mm 2 mps 754 mmHg 72%

Tomorrow, 24 July, Saturday

Time Temperature Precipitation Wind Pressure Humidity
00:00 +20°C° 0 mm 1 mps 754 mmHg 73%
01:00 +19°C° 0 mm 1 mps 754 mmHg 74%
02:00 +19°C° 0 mm 1 mps 754 mmHg 75%
03:00 +19°C° 0 mm 1 mps 754 mmHg 77%
04:00 +18°C° 0 mm 1 mps 754 mmHg 78%
05:00 +20°C° 0 mm 1 mps 754 mmHg 74%
06:00 +21°C° 0 mm 1 mps 754 mmHg 70%
07:00 +22°C° 0 mm 1 mps 754 mmHg 66%
08:00 +23°C° 0 mm 1 mps 755 mmHg 60%
09:00 +25°C° 0 mm 1 mps 755 mmHg 55%
10:00 +26°C° 0 mm 1 mps 755 mmHg 50%
11:00 +27°C° 0 mm 1 mps 754 mmHg 47%
12:00 +27°C° 0 mm 1 mps 754 mmHg 45%
13:00 +27°C° 0 mm 1 mps 754 mmHg 42%
14:00 +27°C° 0 mm 1 mps 754 mmHg 47%
15:00 +26°C° 0 mm 1 mps 754 mmHg 51%
16:00 +25°C° 0 mm 1 mps 754 mmHg 56%
17:00 +25°C° 0 mm 1 mps 754 mmHg 57%
18:00 +24°C° 0 mm 1 mps 754 mmHg 59%
19:00 +24°C° 0 mm 1 mps 754 mmHg 60%
20:00 +23°C° 0 mm 1 mps 754 mmHg 60%
21:00 +23°C° 0 mm 2 mps 754 mmHg 60%
22:00 +23°C° 0 mm 2 mps 754 mmHg 60%
23:00 +21°C° 0 mm 2 mps 754 mmHg 61%

Day after tomorrow, 25 July, Sunday

Time Temperature Precipitation Wind Pressure Humidity
00:00 +21°C° 0 mm 2 mps 754 mmHg 62%
01:00 +20°C° 0 mm 2 mps 754 mmHg 62%
02:00 +20°C° 0 mm 2 mps 754 mmHg 62%
03:00 +20°C° 0 mm 2 mps 754 mmHg 62%
04:00 +20°C° 0 mm 2 mps 754 mmHg 62%
05:00 +21°C° 0 mm 2 mps 754 mmHg 62%
06:00 +21°C° 0 mm 3 mps 754 mmHg 63%
07:00 +22°C° 0 mm 3 mps 754 mmHg 63%
08:00 +25°C° 0 mm 3 mps 754 mmHg 57%
09:00 +26°C° 0 mm 4 mps 754 mmHg 52%
10:00 +28°C° 0 mm 5 mps 754 mmHg 46%
11:00 +29°C° 0 mm 4 mps 754 mmHg 44%
12:00 +30°C° 0 mm 4 mps 754 mmHg 41%
13:00 +32°C° 0 mm 4 mps 753 mmHg 38%
14:00 +31°C° 0 mm 3 mps 753 mmHg 39%
15:00 +31°C° 0 mm 3 mps 753 mmHg 40%
16:00 +31°C° 0 mm 3 mps 753 mmHg 41%
17:00 +29°C° 0 mm 3 mps 753 mmHg 46%
18:00 +28°C° 0 mm 2 mps 753 mmHg 52%
19:00 +26°C° 0 mm 2 mps 753 mmHg 57%
20:00 +25°C° 0.1 mm 2 mps 753 mmHg 61%
21:00 +24°C° 0.1 mm 2 mps 753 mmHg 66%
22:00 +23°C° 0.1 mm 2 mps 754 mmHg 70%
23:00 +22°C° 0 mm 3 mps 753 mmHg 71%

26 July, Monday

Time Temperature Precipitation Wind Pressure Humidity
00:00 +22°C° 0 mm 3 mps 753 mmHg 71%
01:00 +22°C° 0 mm 4 mps 753 mmHg 71%
02:00 +22°C° 0 mm 4 mps 753 mmHg 69%
03:00 +22°C° 0 mm 5 mps 753 mmHg 67%
04:00 +22°C° 0 mm 5 mps 752 mmHg 64%
05:00 +23°C° 0 mm 5 mps 752 mmHg 63%
06:00 +24°C° 0 mm 6 mps 752 mmHg 61%
07:00 +26°C° 0 mm 6 mps 752 mmHg 59%
08:00 +27°C° 0 mm 7 mps 752 mmHg 54%
09:00 +29°C° 0 mm 7 mps 752 mmHg 49%
10:00 +30°C° 0 mm 7 mps 752 mmHg 44%
11:00 +32°C° 0 mm 7 mps 752 mmHg 43%
12:00 +33°C° 0 mm 6 mps 751 mmHg 41%
13:00 +34°C° 0 mm 6 mps 751 mmHg 40%
14:00 +33°C° 0 mm 5 mps 751 mmHg 41%
15:00 +33°C° 0 mm 5 mps 751 mmHg 43%
16:00 +33°C° 0 mm 5 mps 751 mmHg 45%
17:00 +30°C° 0 mm 4 mps 751 mmHg 51%
18:00 +28°C° 0 mm 3 mps 751 mmHg 58%
19:00 +27°C° 0 mm 2 mps 751 mmHg 64%
20:00 +26°C° 0 mm 2 mps 751 mmHg 68%
21:00 +25°C° 0 mm 2 mps 751 mmHg 72%
22:00 +23°C° 0 mm 2 mps 751 mmHg 76%
23:00 +23°C° 0 mm 1 mps 751 mmHg 79%

27 July, Tuesday

Time Temperature Precipitation Wind Pressure Humidity
00:00 +22°C° 0 mm 1 mps 751 mmHg 83%
01:00 +22°C° 0 mm 1 mps 751 mmHg 86%
02:00 +21°C° 0 mm 1 mps 751 mmHg 87%
03:00 +21°C° 0 mm 1 mps 751 mmHg 89%
04:00 +21°C° 0 mm 1 mps 751 mmHg 90%
05:00 +22°C° 0 mm 1 mps 751 mmHg 84%
06:00 +24°C° 0 mm 1 mps 751 mmHg 78%
07:00 +25°C° 0 mm 1 mps 752 mmHg 72%
08:00 +26°C° 0.1 mm 2 mps 752 mmHg 71%
09:00 +26°C° 0.1 mm 2 mps 752 mmHg 69%
10:00 +26°C° 0.1 mm 3 mps 752 mmHg 68%
11:00 +26°C° 0.3 mm 3 mps 752 mmHg 71%
12:00 +25°C° 0.3 mm 3 mps 752 mmHg 75%
13:00 +25°C° 0.3 mm 3 mps 753 mmHg 78%
14:00 +26°C° 0.2 mm 3 mps 753 mmHg 71%
15:00 +27°C° 0.2 mm 3 mps 753 mmHg 64%
16:00 +28°C° 0.2 mm 3 mps 753 mmHg 57%
17:00 +27°C° 0 mm 2 mps 753 mmHg 60%
18:00 +26°C° 0 mm 2 mps 753 mmHg 64%
19:00 +25°C° 0 mm 1 mps 752 mmHg 67%
20:00 +25°C° 0 mm 1 mps 753 mmHg 69%
21:00 +24°C° 0 mm 1 mps 753 mmHg 71%
22:00 +23°C° 0 mm 2 mps 753 mmHg 73%
23:00 +21°C° 0 mm 2 mps 753 mmHg 74%

28 July, Wednesday

Time Temperature Precipitation Wind Pressure Humidity
00:00 +22°C° 0 mm 1 mps 753 mmHg 76%
01:00 +22°C° 0 mm 1 mps 753 mmHg 77%
02:00 +21°C° 0 mm 1 mps 753 mmHg 78%
03:00 +20°C° 0 mm 2 mps 753 mmHg 79%
04:00 +20°C° 0 mm 2 mps 752 mmHg 80%
05:00 +21°C° 0.1 mm 2 mps 753 mmHg 78%
06:00 +23°C° 0.1 mm 2 mps 753 mmHg 75%
07:00 +24°C° 0.1 mm 2 mps 753 mmHg 73%
08:00 +22°C° 0.9 mm 3 mps 753 mmHg 80%
09:00 +21°C° 0.9 mm 3 mps 753 mmHg 86%
10:00 +19°C° 0.9 mm 4 mps 754 mmHg 93%
11:00 +20°C° 1 mm 3 mps 754 mmHg 92%
12:00 +20°C° 1 mm 2 mps 754 mmHg 90%
13:00 +20°C° 1 mm 2 mps 754 mmHg 89%
14:00 +20°C° 0 mm 2 mps 754 mmHg 87%
15:00 +21°C° 0 mm 2 mps 754 mmHg 85%
16:00 +21°C° 0 mm 3 mps 754 mmHg 84%
17:00 +21°C° 0 mm 2 mps 754 mmHg 82%
18:00 +20°C° 0 mm 2 mps 754 mmHg 81%
19:00 +20°C° 0 mm 2 mps 754 mmHg 80%
20:00 +19°C° 0 mm 2 mps 754 mmHg 81%
21:00 +19°C° 0 mm 2 mps 754 mmHg 81%
22:00 +18°C° 0 mm 2 mps 754 mmHg 82%
23:00 +18°C° 0 mm 2 mps 754 mmHg 83%
Show more